When you browse on this site, cookies collect data to enhance your experience and personalize the content and advertising you see.
Visit our Privacy Policy to learn more. By continuing to use the site, you agree to this use of cookies and data.

Hourly Weather Trujillo

Today, 8 August, Saturday

Time Temperature Precipitation Wind Pressure Humidity
00:00 +19°C° 0 mm 2 mps 648 mmHg 88%
01:00 +19°C° 0 mm 2 mps 648 mmHg 87%
02:00 +19°C° 0 mm 2 mps 648 mmHg 86%
03:00 +19°C° 0 mm 2 mps 648 mmHg 85%
04:00 +20°C° 0 mm 1 mps 647 mmHg 85%
05:00 +20°C° 0 mm 1 mps 648 mmHg 83%
06:00 +21°C° 0 mm 1 mps 648 mmHg 82%
07:00 +21°C° 0 mm 1 mps 649 mmHg 80%
08:00 +23°C° 0 mm 1 mps 649 mmHg 74%
09:00 +25°C° 0 mm 1 mps 650 mmHg 68%
10:00 +27°C° 0 mm 1 mps 651 mmHg 61%
11:00 +27°C° 0.4 mm 1 mps 650 mmHg 63%
12:00 +27°C° 0.4 mm 1 mps 650 mmHg 64%
13:00 +27°C° 0.4 mm 1 mps 649 mmHg 66%
14:00 +26°C° 0.4 mm 1 mps 648 mmHg 70%
15:00 +25°C° 0.4 mm 1 mps 648 mmHg 74%
16:00 +25°C° 0.4 mm 1 mps 647 mmHg 78%
17:00 +24°C° 0.5 mm 1 mps 647 mmHg 82%
18:00 +22°C° 0.5 mm 1 mps 647 mmHg 86%
19:00 +21°C° 0.5 mm 1 mps 647 mmHg 89%
20:00 +20°C° 0.3 mm 2 mps 647 mmHg 88%
21:00 +20°C° 0.3 mm 2 mps 648 mmHg 88%
22:00 +20°C° 0.3 mm 2 mps 648 mmHg 87%
23:00 +20°C° 0 mm 2 mps 648 mmHg 86%

Tomorrow, 9 August, Sunday

Time Temperature Precipitation Wind Pressure Humidity
00:00 +20°C° 0 mm 1 mps 648 mmHg 85%
01:00 +20°C° 0 mm 1 mps 647 mmHg 83%
02:00 +20°C° 0 mm 1 mps 647 mmHg 83%
03:00 +20°C° 0 mm 1 mps 647 mmHg 83%
04:00 +20°C° 0 mm 1 mps 647 mmHg 83%
05:00 +20°C° 0.1 mm 1 mps 647 mmHg 83%
06:00 +21°C° 0.1 mm 1 mps 648 mmHg 83%
07:00 +21°C° 0.1 mm 1 mps 648 mmHg 83%
08:00 +22°C° 0.1 mm 1 mps 649 mmHg 79%
09:00 +24°C° 0.1 mm 1 mps 649 mmHg 74%
10:00 +25°C° 0.1 mm 1 mps 650 mmHg 70%
11:00 +25°C° 0.3 mm 1 mps 650 mmHg 70%
12:00 +25°C° 0.3 mm 1 mps 649 mmHg 69%
13:00 +26°C° 0.3 mm 1 mps 649 mmHg 69%
14:00 +25°C° 0.7 mm 1 mps 648 mmHg 73%
15:00 +24°C° 0.7 mm 1 mps 647 mmHg 77%
16:00 +24°C° 0.7 mm 1 mps 647 mmHg 81%
17:00 +23°C° 0.5 mm 1 mps 647 mmHg 84%
18:00 +22°C° 0.5 mm 1 mps 646 mmHg 87%
19:00 +21°C° 0.5 mm 1 mps 646 mmHg 89%
20:00 +20°C° 0.1 mm 1 mps 647 mmHg 88%
21:00 +20°C° 0.1 mm 1 mps 647 mmHg 87%
22:00 +19°C° 0.1 mm 2 mps 648 mmHg 86%
23:00 +20°C° 0 mm 1 mps 647 mmHg 85%

Day after tomorrow, 10 August, Monday

Time Temperature Precipitation Wind Pressure Humidity
00:00 +20°C° 0 mm 1 mps 647 mmHg 85%
01:00 +19°C° 0 mm 1 mps 646 mmHg 85%
02:00 +19°C° 0 mm 1 mps 646 mmHg 85%
03:00 +19°C° 0 mm 1 mps 646 mmHg 85%
04:00 +19°C° 0 mm 1 mps 646 mmHg 85%
05:00 +20°C° 0 mm 1 mps 646 mmHg 83%
06:00 +20°C° 0 mm 1 mps 647 mmHg 81%
07:00 +21°C° 0 mm 1 mps 647 mmHg 78%
08:00 +23°C° 0 mm 1 mps 648 mmHg 72%
09:00 +25°C° 0 mm 1 mps 649 mmHg 66%
10:00 +27°C° 0 mm 1 mps 650 mmHg 60%
11:00 +27°C° 0.9 mm 1 mps 649 mmHg 64%
12:00 +27°C° 0.9 mm 1 mps 648 mmHg 68%
13:00 +26°C° 0.9 mm 1 mps 647 mmHg 72%
14:00 +26°C° 1.5 mm 1 mps 647 mmHg 76%
15:00 +25°C° 1.5 mm 1 mps 646 mmHg 80%
16:00 +24°C° 1.5 mm 1 mps 645 mmHg 84%
17:00 +23°C° 0.3 mm 1 mps 645 mmHg 87%
18:00 +22°C° 0.3 mm 1 mps 645 mmHg 90%
19:00 +21°C° 0.3 mm 1 mps 645 mmHg 93%
20:00 +20°C° 0 mm 1 mps 645 mmHg 92%
21:00 +20°C° 0 mm 1 mps 646 mmHg 91%
22:00 +19°C° 0 mm 2 mps 646 mmHg 90%
23:00 +18°C° 0 mm 2 mps 646 mmHg 89%

11 August, Tuesday

Time Temperature Precipitation Wind Pressure Humidity
00:00 +19°C° 0 mm 1 mps 645 mmHg 87%
01:00 +19°C° 0 mm 1 mps 645 mmHg 86%
02:00 +19°C° 0 mm 1 mps 645 mmHg 85%
03:00 +19°C° 0 mm 1 mps 645 mmHg 84%
04:00 +19°C° 0 mm 1 mps 644 mmHg 82%
05:00 +20°C° 0 mm 1 mps 645 mmHg 80%
06:00 +21°C° 0 mm 1 mps 646 mmHg 77%
07:00 +21°C° 0 mm 1 mps 646 mmHg 74%
08:00 +23°C° 0 mm 1 mps 647 mmHg 69%
09:00 +25°C° 0 mm 1 mps 648 mmHg 63%
10:00 +27°C° 0 mm 1 mps 648 mmHg 57%
11:00 +27°C° 0.7 mm 1 mps 648 mmHg 62%
12:00 +27°C° 0.7 mm 1 mps 647 mmHg 67%
13:00 +26°C° 0.7 mm 1 mps 646 mmHg 72%
14:00 +25°C° 1.7 mm 1 mps 645 mmHg 77%
15:00 +25°C° 1.7 mm 1 mps 645 mmHg 82%
16:00 +24°C° 1.7 mm 1 mps 644 mmHg 87%
17:00 +23°C° 0.5 mm 1 mps 644 mmHg 89%
18:00 +22°C° 0.5 mm 1 mps 644 mmHg 91%
19:00 +21°C° 0.5 mm 1 mps 645 mmHg 93%
20:00 +20°C° 0.3 mm 1 mps 645 mmHg 92%
21:00 +20°C° 0.3 mm 1 mps 645 mmHg 91%
22:00 +20°C° 0.3 mm 1 mps 646 mmHg 90%
23:00 +20°C° 0 mm 1 mps 645 mmHg 90%

12 August, Wednesday

Time Temperature Precipitation Wind Pressure Humidity
00:00 +20°C° 0 mm 1 mps 645 mmHg 89%
01:00 +19°C° 0 mm 1 mps 645 mmHg 88%
02:00 +19°C° 0 mm 1 mps 645 mmHg 87%
03:00 +19°C° 0 mm 1 mps 644 mmHg 86%
04:00 +19°C° 0 mm 1 mps 644 mmHg 86%
05:00 +20°C° 0 mm 1 mps 645 mmHg 84%
06:00 +20°C° 0 mm 1 mps 646 mmHg 83%
07:00 +21°C° 0 mm 1 mps 646 mmHg 81%
08:00 +23°C° 0 mm 1 mps 647 mmHg 76%
09:00 +24°C° 0 mm 1 mps 647 mmHg 71%
10:00 +26°C° 0 mm 1 mps 648 mmHg 65%
11:00 +26°C° 0.5 mm 1 mps 647 mmHg 68%
12:00 +26°C° 0.5 mm 1 mps 647 mmHg 70%
13:00 +26°C° 0.5 mm 1 mps 646 mmHg 72%
14:00 +26°C° 0.5 mm 1 mps 646 mmHg 75%
15:00 +25°C° 0.5 mm 1 mps 645 mmHg 78%
16:00 +25°C° 0.5 mm 1 mps 644 mmHg 81%
17:00 +23°C° 0.5 mm 1 mps 644 mmHg 85%
18:00 +22°C° 0.5 mm 1 mps 644 mmHg 90%
19:00 +21°C° 0.5 mm 1 mps 644 mmHg 94%
20:00 +21°C° 0.1 mm 1 mps 645 mmHg 93%
21:00 +19°C° 0.1 mm 2 mps 645 mmHg 92%
22:00 +19°C° 0.1 mm 2 mps 645 mmHg 91%
23:00 +19°C° 0 mm 2 mps 645 mmHg 90%

13 August, Thursday

Time Temperature Precipitation Wind Pressure Humidity
00:00 +18°C° 0 mm 2 mps 645 mmHg 89%
01:00 +19°C° 0 mm 1 mps 644 mmHg 89%
02:00 +19°C° 0 mm 1 mps 644 mmHg 88%
03:00 +19°C° 0 mm 1 mps 644 mmHg 88%
04:00 +19°C° 0 mm 1 mps 644 mmHg 87%
05:00 +20°C° 0 mm 1 mps 645 mmHg 85%
06:00 +21°C° 0 mm 1 mps 645 mmHg 84%
07:00 +21°C° 0 mm 1 mps 646 mmHg 82%
08:00 +23°C° 0.1 mm 1 mps 647 mmHg 78%
09:00 +24°C° 0.1 mm 1 mps 647 mmHg 74%
10:00 +25°C° 0.1 mm 1 mps 648 mmHg 69%
11:00 +25°C° 0.5 mm 1 mps 647 mmHg 70%
12:00 +26°C° 0.5 mm 1 mps 647 mmHg 71%
13:00 +26°C° 0.5 mm 1 mps 646 mmHg 72%
14:00 +25°C° 0.9 mm 1 mps 646 mmHg 75%
15:00 +25°C° 0.9 mm 1 mps 645 mmHg 77%
16:00 +24°C° 0.9 mm 1 mps 644 mmHg 80%
17:00 +23°C° 0.3 mm 1 mps 644 mmHg 83%
18:00 +22°C° 0.3 mm 1 mps 644 mmHg 87%
19:00 +21°C° 0.3 mm 1 mps 645 mmHg 90%
20:00 +20°C° 0.1 mm 1 mps 645 mmHg 89%
21:00 +20°C° 0.1 mm 1 mps 645 mmHg 87%
22:00 +20°C° 0.1 mm 1 mps 645 mmHg 86%
23:00 +19°C° 0 mm 1 mps 645 mmHg 85%
Show more